Location: Wavehorne
(51.0500°N, 0.8333°E)
Time: 15:22:43
(UTC+00:00)

NOSS 2-3 (E) - Pass Details

Date: 20 June 2021
Orbit: 555 x 1655 km, 63.4° (Epoch: 23 July)

Event Time Altitude Azimuth Distance (km) Brightness Sun altitude
Exits shadow 00:42:31 23° 217° (SW) 1,286 4.7 -14.9°
Maximum altitude 00:45:08 81° 132° (SE) 652 3.6 -14.8°
Drops below altitude 10° 00:50:09 10° 46° (NE) 2,277 7.3 -14.6°
Sets 00:52:51 0° 45° (NE) 3,365 8.4 -14.5°
